Pickwick Observed Data For Previous 48 Hours

Caption
Day and Hour Reservoir Elevation (behind dam)* Tailwater Elevation (below dam)* Average Hourly Discharge*
1/17/2018 1 AM CST 409.40 359.80 31,132
1/17/2018 2 AM CST 409.29 359.41 31,181
1/17/2018 3 AM CST 409.26 359.21 31,257
1/17/2018 4 AM CST 409.27 359.10 31,435
1/17/2018 5 AM CST 409.24 359.34 36,908
1/17/2018 6 AM CST 409.23 359.47 37,821
1/17/2018 7 AM CST 409.32 359.49 37,788
1/17/2018 8 AM CST 409.33 359.86 44,946
1/17/2018 9 AM CST 409.40 360.58 52,379
1/17/2018 10 AM CST 409.49 361.00 52,677
1/17/2018 11 AM CST 409.58 361.14 52,380
1/17/2018 12 PM CST 409.60 360.74 43,405
1/17/2018 1 PM CST 409.54 360.02 34,224
1/17/2018 2 PM CST 409.45 359.70 34,588
1/17/2018 3 PM CST 409.39 359.45 34,742
1/17/2018 4 PM CST 409.42 359.35 34,818
1/17/2018 5 PM CST 409.39 359.33 35,945
1/17/2018 6 PM CST 409.33 359.95 46,486
1/17/2018 7 PM CST 409.34 360.60 52,429
1/17/2018 8 PM CST 409.37 360.96 52,563
1/17/2018 9 PM CST 409.41 361.22 52,594
1/17/2018 10 PM CST 409.43 361.24 53,011
1/17/2018 11 PM CST 409.52 360.88 45,150
1/18/2018 12 AM CST 409.59 360.23 35,486
1/18/2018 1 AM CST 409.57 359.66 35,069
1/18/2018 2 AM CST 409.41 359.47 36,234
1/18/2018 3 AM CST 409.41 360.26 52,077
1/18/2018 4 AM CST 409.49 360.83 52,546
1/18/2018 5 AM CST 409.55 361.17 52,550
1/18/2018 6 AM CST 409.52 361.33 53,037
1/18/2018 7 AM CST 409.49 361.29 53,025
1/18/2018 8 AM CST 409.56 361.30 53,107
1/18/2018 9 AM CST 409.61 361.34 52,889
1/18/2018 10 AM CST 409.65 361.18 49,413
1/18/2018 11 AM CST 409.72 360.96 44,809
1/18/2018 12 PM CST 409.66 360.72 45,039
1/18/2018 1 PM CST 409.72 360.06 35,436
1/18/2018 2 PM CST 409.75 359.59 35,084
1/18/2018 3 PM CST 409.61 359.46 35,130
1/18/2018 4 PM CST 409.63 359.30 35,435
1/18/2018 5 PM CST 409.62 359.24 35,306
1/18/2018 6 PM CST 409.53 359.89 45,161
1/18/2018 7 PM CST 409.54 360.45 51,096
1/18/2018 8 PM CST 409.55 360.73 51,203
1/18/2018 9 PM CST 409.61 360.86 51,417
1/18/2018 10 PM CST 409.63 360.56 45,134
1/18/2018 11 PM CST 409.68 359.87 35,525

Elevations are in feet above sea level. Discharges are in cubic feet per second and are reported at the end of the hour.